[[{"header":{"parameterUnit":"m.s-1","parameterCategory":2,"la1":30.2992,"la2":30.254,"lo1":-89.0895,"lo2":-89.0443,"dy":0.0025,"dx":0.0025,"nx":19,"ny":19,"refTime":"2026-03-30T03:00:00:Z","depth":"0","parameterNumber":2,"parameterNumberName":"U-component_of_CURRENTS"},"data":[0,0,0,-0.1503,-0.1504,-0.1522,-0.1522,-0.1509,-0.1508,0,0,0,0,0,0,0,0,0,0,0,-0.1491,-0.1492,-0.1503,-0.1504,-0.1522,-0.1522,-0.1509,-0.1508,0,0,0,0,0,0,0,0,0,0,0,-0.1491,-0.1492,-0.1492,-0.1504,-0.1522,-0.1522,-0.1509,-0.1502,0,0,0,0,0,0,0,0,0,0,-0.1488,-0.148,-0.1492,-0.1492,-0.1504,-0.1522,-0.1522,-0.1502,-0.1503,-0.1493,0,-0.1499,0,-0.1509,-0.1508,-0.1507,0,0,0,-0.1496,-0.1479,-0.1493,-0.1492,-0.1504,-0.1522,-0.1511,-0.1503,-0.1503,-0.1493,-0.1499,-0.1499,-0.1508,-0.1507,-0.1507,-0.1597,-0.1598,0,0,-0.1495,-0.1485,-0.1493,-0.1493,-0.1512,-0.1511,-0.1512,-0.1503,-0.1499,-0.1499,-0.1499,-0.1508,-0.1507,-0.1507,-0.1596,-0.1597,0,0,0,-0.1497,-0.1484,-0.1498,-0.1493,-0.1503,-0.1512,-0.1513,-0.1499,-0.1506,-0.1499,-0.1508,-0.1507,-0.1507,-0.1594,-0.1596,-0.1648,0,0,0,-0.1496,-0.1486,-0.1498,-0.149,-0.1503,-0.1505,-0.1509,-0.1507,-0.1507,-0.1508,-0.1507,-0.1507,-0.1593,-0.1595,-0.1644,-0.1658,0,0,0,-0.149,-0.1485,-0.1491,-0.149,-0.1503,-0.1506,-0.1512,-0.1507,-0.1513,-0.1507,-0.1507,-0.1592,-0.1595,-0.164,-0.1653,-0.1686,0,0,0,-0.1474,-0.1496,-0.149,-0.1528,-0.1503,-0.1569,-0.1512,-0.154,-0.1543,-0.1507,-0.1593,-0.1596,-0.1639,-0.1649,-0.1683,-0.1711,-0.1729,0,0,-0.1499,-0.1498,-0.1527,-0.1524,-0.1596,-0.1565,-0.1639,-0.1605,-0.158,-0.1589,-0.1591,-0.1645,-0.1652,-0.1686,-0.186,-0.1873,0,0,0,-0.1535,-0.1554,-0.1578,-0.1615,-0.1652,-0.1683,-0.167,-0.167,-0.1677,-0.1595,-0.1683,-0.1687,-0.1705,-0.1718,-0.1729,-0.1767,-0.1608,-0.1607,-0.1607,-0.1535,-0.1579,-0.1637,-0.1694,-0.1734,-0.1768,-0.179,-0.179,-0.1753,-0.1776,-0.1757,-0.1857,-0.1874,-0.1882,-0.1922,-0.1795,-0.1795,-0.1795,-0.1796,-0.1587,-0.1623,-0.1682,-0.1751,-0.1796,-0.1848,-0.1893,-0.1876,-0.1903,-0.1859,-0.1875,-0.1808,-0.1896,-0.1936,-0.18,-0.1799,-0.1798,-0.1798,-0.1798,-0.1587,-0.1611,-0.1659,-0.1749,-0.1819,-0.1874,-0.1937,-0.195,-0.1947,-0.1965,-0.1961,-0.196,-0.1966,-0.1966,-0.1966,-0.1966,-0.1967,-0.1967,-0.1967,-0.1553,-0.1608,-0.1646,-0.1744,-0.1785,-0.186,-0.1951,-0.1991,-0.2031,-0.2026,-0.2026,-0.2028,-0.1909,-0.1869,-0.1971,-0.197,-0.197,-0.1969,-0.1969,-0.1537,-0.1548,-0.1603,-0.1645,-0.1755,-0.1811,-0.1937,-0.2057,-0.2104,-0.213,-0.2156,-0.2062,-0.2043,-0.2034,-0.1999,-0.2128,-0.2128,-0.2128,-0.2128,-0.1489,-0.1514,-0.1546,-0.1594,-0.1681,-0.1778,-0.189,-0.2037,-0.2175,-0.2223,-0.2245,-0.2224,-0.2216,-0.2204,-0.2192,-0.2159,-0.2326,-0.2326,-0.2326,-0.145,-0.1473,-0.1465,-0.1535,-0.1634,-0.1726,-0.1814,-0.2032,-0.226,-0.2337,-0.2299,-0.229,-0.2259,-0.2242,-0.2218,-0.2198,-0.214,0,0]},{"header":{"parameterUnit":"m.s-1","parameterCategory":2,"la1":30.2992,"la2":30.254,"lo1":-89.0895,"lo2":-89.0443,"dy":0.0025,"dx":0.0025,"nx":19,"ny":19,"refTime":"2026-03-30T03:00:00:Z","depth":"0","parameterNumber":3,"parameterNumberName":"V-component_of_CURRENTS"},"data":[0,0,0,-0.0167,-0.0166,-0.0082,-0.0082,-0.0011,-0.0011,0,0,0,0,0,0,0,0,0,0,0,-0.0201,-0.0201,-0.0168,-0.0166,-0.0082,-0.0082,-0.0011,-0.0011,0,0,0,0,0,0,0,0,0,0,0,-0.0201,-0.0201,-0.02,-0.0165,-0.0082,-0.0082,-0.0011,-0.0064,0,0,0,0,0,0,0,0,0,0,-0.014,-0.0172,-0.0201,-0.02,-0.0165,-0.0082,-0.0082,-0.0066,-0.0061,-0.0062,0,-0.0055,0,-0.0033,-0.0008,-0.0007,0,0,0,-0.0158,-0.0176,-0.0151,-0.02,-0.0164,-0.0083,-0.0118,-0.0063,-0.0057,-0.0055,-0.0054,-0.005,-0.0032,-0.0007,-0.0007,0.0054,0.0054,0,0,-0.0163,-0.0187,-0.0155,-0.0147,-0.0151,-0.0121,-0.0115,-0.0058,-0.0059,-0.0053,-0.0048,-0.0031,-0.0007,-0.0007,0.0053,0.0054,0,0,0,-0.0181,-0.019,-0.0165,-0.0151,-0.0133,-0.0118,-0.0112,-0.0061,-0.0052,-0.0047,-0.003,-0.0007,-0.0006,0.0053,0.0054,0.0011,0,0,0,-0.0184,-0.0201,-0.0167,-0.0181,-0.0134,-0.0092,-0.0117,-0.0056,-0.0049,-0.003,-0.0007,-0.0006,0.0053,0.0053,0.0011,-0.0032,0,0,0,-0.0203,-0.0203,-0.0195,-0.0182,-0.0148,-0.0092,-0.0079,-0.0054,-0.0039,-0.0007,-0.0006,0.0052,0.0053,0.0012,-0.003,-0.0019,0,0,0,-0.0227,-0.0235,-0.0196,-0.0198,-0.0149,-0.0107,-0.0079,-0.0046,-0.0022,-0.0006,0.0053,0.0053,0.0012,-0.0029,-0.0018,0.0012,0.0011,0,0,-0.0254,-0.0239,-0.0239,-0.0202,-0.0187,-0.0117,-0.0088,-0.0046,-0.0009,0.0032,0.0034,0.0011,-0.003,-0.0019,0.0054,0.0051,0,0,0,-0.0258,-0.0265,-0.0251,-0.0232,-0.0181,-0.0137,-0.0075,-0.0039,0.0012,0.0009,0.0038,0.0014,0.0022,0.0043,0.0041,0.0254,0.0057,0.0057,0.0057,-0.0332,-0.0302,-0.031,-0.0268,-0.0232,-0.0146,-0.0104,-0.0039,-0.0002,0.0024,0.0,0.0003,0.0027,0.0026,0.0245,0.0038,0.0038,0.0038,0.0038,-0.0399,-0.0411,-0.0364,-0.0364,-0.0294,-0.0256,-0.0142,-0.0094,-0.003,-0.0002,0.0009,0.0022,0.0021,0.0256,0.0035,0.0036,0.0036,0.0036,0.0036,-0.0463,-0.0467,-0.0458,-0.0454,-0.0419,-0.033,-0.0286,-0.0188,-0.009,-0.0076,-0.002,-0.0019,0.0169,-0.0058,-0.0058,-0.0058,-0.0058,-0.0058,-0.0059,-0.0538,-0.0529,-0.0566,-0.0548,-0.0546,-0.0504,-0.037,-0.0303,-0.0163,-0.0074,-0.0073,0.0209,-0.0025,-0.0042,-0.0061,-0.006,-0.006,-0.006,-0.006,-0.0627,-0.062,-0.0685,-0.0701,-0.0698,-0.0687,-0.0543,-0.0356,-0.0249,-0.0177,0.0218,-0.005,-0.0033,-0.003,-0.0045,-0.0064,-0.0064,-0.0064,-0.0064,-0.069,-0.0691,-0.0789,-0.0839,-0.085,-0.0776,-0.0679,-0.0423,0.0009,0.0258,0.0338,0.0403,0.0394,0.044,0.0433,0.0429,0.0532,0.0533,0.0534,-0.0753,-0.0778,-0.0864,-0.0907,-0.0921,-0.087,-0.0764,-0.0432,0.0252,0.0581,0.0631,0.0606,0.0725,0.0692,0.0781,0.0754,0.0752,0,0]}],[{"header":{"parameterUnit":"m.s-1","parameterCategory":2,"la1":30.2992,"la2":30.254,"lo1":-89.0895,"lo2":-89.0443,"dy":0.0025,"dx":0.0025,"nx":19,"ny":19,"refTime":"2026-03-30T03:00:00:Z","depth":"2","parameterNumber":2,"parameterNumberName":"U-component_of_CURRENTS"},"data":[0,0,0,-0.1394,-0.1394,-0.1412,-0.1412,-0.1395,-0.1395,0,0,0,0,0,0,0,0,0,0,0,-0.1383,-0.1383,-0.1394,-0.1394,-0.1412,-0.1412,-0.1396,-0.1395,0,0,0,0,0,0,0,0,0,0,0,-0.1383,-0.1383,-0.1383,-0.1395,-0.1412,-0.1412,-0.1396,-0.139,0,0,0,0,0,0,0,0,0,0,-0.1377,-0.137,-0.1383,-0.1383,-0.1395,-0.1412,-0.1412,-0.139,-0.139,-0.1379,0,-0.1386,0,-0.1395,-0.1394,-0.1394,0,0,0,-0.1386,-0.137,-0.1383,-0.1383,-0.1395,-0.1412,-0.1402,-0.139,-0.1391,-0.1379,-0.1386,-0.1385,-0.1395,-0.1394,-0.1394,-0.1478,-0.1479,0,0,-0.1385,-0.1377,-0.1383,-0.1383,-0.1404,-0.1401,-0.1402,-0.1391,-0.1388,-0.1386,-0.1385,-0.1395,-0.1394,-0.1394,-0.1477,-0.1478,0,0,0,-0.1388,-0.1376,-0.1389,-0.1383,-0.1392,-0.1402,-0.1403,-0.1388,-0.1395,-0.1385,-0.1394,-0.1394,-0.1394,-0.1476,-0.1477,-0.1531,0,0,0,-0.1387,-0.1379,-0.1389,-0.1383,-0.1393,-0.1395,-0.14,-0.1395,-0.1395,-0.1395,-0.1394,-0.1393,-0.1474,-0.1476,-0.1527,-0.1542,0,0,0,-0.1381,-0.1378,-0.1383,-0.1382,-0.1395,-0.1396,-0.1401,-0.1395,-0.14,-0.1394,-0.1393,-0.1474,-0.1476,-0.1523,-0.1537,-0.1571,0,0,0,-0.1367,-0.1389,-0.1383,-0.1419,-0.1395,-0.1456,-0.1401,-0.1428,-0.143,-0.1394,-0.1475,-0.1477,-0.1522,-0.1533,-0.1567,-0.1582,-0.1598,0,0,-0.1392,-0.1391,-0.1419,-0.1415,-0.1483,-0.1453,-0.1522,-0.149,-0.1465,-0.1471,-0.1473,-0.1528,-0.1536,-0.157,-0.1727,-0.1738,0,0,0,-0.1426,-0.1445,-0.1467,-0.1502,-0.1536,-0.1565,-0.1552,-0.1552,-0.1559,-0.1479,-0.1564,-0.1569,-0.1587,-0.1591,-0.1601,-0.1489,-0.1489,-0.1488,-0.1488,-0.143,-0.147,-0.1525,-0.1577,-0.1615,-0.1646,-0.1668,-0.1668,-0.1632,-0.1656,-0.1639,-0.1739,-0.1746,-0.1753,-0.1675,-0.1675,-0.1675,-0.1675,-0.1676,-0.1479,-0.1514,-0.1568,-0.1633,-0.1676,-0.1726,-0.1768,-0.1754,-0.1782,-0.1739,-0.1755,-0.1682,-0.1767,-0.1681,-0.168,-0.1679,-0.1678,-0.1678,-0.1678,-0.1481,-0.1503,-0.1549,-0.1634,-0.1702,-0.1755,-0.1817,-0.1831,-0.1828,-0.1846,-0.1835,-0.1833,-0.1742,-0.1849,-0.185,-0.185,-0.185,-0.185,-0.185,-0.145,-0.1503,-0.1539,-0.1632,-0.1673,-0.1746,-0.1835,-0.1873,-0.1908,-0.19,-0.19,-0.1797,-0.1791,-0.1753,-0.1854,-0.1854,-0.1853,-0.1853,-0.1852,-0.1435,-0.1447,-0.15,-0.154,-0.1645,-0.1686,-0.1819,-0.1931,-0.1979,-0.2,-0.1933,-0.193,-0.1909,-0.19,-0.1866,-0.199,-0.199,-0.199,-0.199,-0.139,-0.1415,-0.1446,-0.1492,-0.1574,-0.165,-0.1713,-0.1779,-0.1872,-0.1853,-0.1857,-0.1811,-0.181,-0.1778,-0.1773,-0.1734,-0.1824,-0.1823,-0.1822,-0.1352,-0.1375,-0.1368,-0.1434,-0.1528,-0.1585,-0.1575,-0.1551,-0.1631,-0.1806,-0.1732,-0.1998,-0.1943,-0.1936,-0.1896,-0.1884,-0.1824,0,0]},{"header":{"parameterUnit":"m.s-1","parameterCategory":2,"la1":30.2992,"la2":30.254,"lo1":-89.0895,"lo2":-89.0443,"dy":0.0025,"dx":0.0025,"nx":19,"ny":19,"refTime":"2026-03-30T03:00:00:Z","depth":"2","parameterNumber":3,"parameterNumberName":"V-component_of_CURRENTS"},"data":[0,0,0,-0.0156,-0.0154,-0.0072,-0.0072,-0.0003,-0.0002,0,0,0,0,0,0,0,0,0,0,0,-0.0189,-0.0189,-0.0156,-0.0154,-0.0072,-0.0071,-0.0003,-0.0002,0,0,0,0,0,0,0,0,0,0,0,-0.0189,-0.0189,-0.0188,-0.0154,-0.0072,-0.0071,-0.0003,-0.0054,0,0,0,0,0,0,0,0,0,0,-0.0129,-0.0161,-0.0189,-0.0188,-0.0153,-0.0072,-0.0071,-0.0056,-0.0051,-0.0052,0,-0.0046,0,-0.0024,0.0001,0.0001,0,0,0,-0.0147,-0.0165,-0.0139,-0.0188,-0.0153,-0.0072,-0.0107,-0.0053,-0.0047,-0.0046,-0.0044,-0.0041,-0.0023,0.0001,0.0002,0.0061,0.0061,0,0,-0.0151,-0.0175,-0.0143,-0.0136,-0.014,-0.011,-0.0105,-0.0049,-0.005,-0.0044,-0.0039,-0.0022,0.0002,0.0002,0.0061,0.0061,0,0,0,-0.0169,-0.0179,-0.0153,-0.014,-0.0122,-0.0107,-0.0102,-0.0052,-0.0043,-0.0038,-0.0021,0.0002,0.0002,0.006,0.0061,0.0017,0,0,0,-0.0172,-0.0189,-0.0156,-0.0169,-0.0124,-0.0082,-0.0106,-0.0047,-0.0039,-0.0021,0.0002,0.0003,0.006,0.006,0.0018,-0.0024,0,0,0,-0.0191,-0.0191,-0.0183,-0.0171,-0.0137,-0.0082,-0.0069,-0.0044,-0.0029,0.0001,0.0003,0.006,0.006,0.0018,-0.0022,-0.001,0,0,0,-0.0215,-0.0223,-0.0184,-0.0186,-0.0138,-0.0097,-0.0069,-0.0037,-0.0013,0.0002,0.006,0.0061,0.0018,-0.0021,-0.0009,0.0017,0.0016,0,0,-0.0241,-0.0227,-0.0227,-0.0191,-0.0177,-0.0107,-0.0079,-0.0038,-0.0,0.0039,0.0041,0.0018,-0.0022,-0.0009,0.0058,0.0056,0,0,0,-0.0246,-0.0254,-0.024,-0.0221,-0.0171,-0.0128,-0.0067,-0.0031,0.0018,0.0017,0.0045,0.0021,0.003,0.0049,0.0047,0.0064,0.0064,0.0064,0.0064,-0.032,-0.029,-0.0299,-0.0259,-0.0224,-0.0138,-0.0097,-0.0033,0.0004,0.003,0.0006,0.0011,0.0031,0.003,0.0043,0.0043,0.0043,0.0043,0.0043,-0.0387,-0.0399,-0.0354,-0.0355,-0.0286,-0.0249,-0.0136,-0.0088,-0.0024,0.0003,0.0016,0.0027,0.0025,0.004,0.0041,0.0041,0.0041,0.0042,0.0042,-0.0451,-0.0456,-0.0448,-0.0445,-0.0411,-0.0323,-0.0278,-0.0181,-0.0083,-0.0068,-0.0014,-0.0013,-0.003,-0.005,-0.005,-0.005,-0.005,-0.005,-0.005,-0.0526,-0.0518,-0.0555,-0.0538,-0.0536,-0.0494,-0.0361,-0.0293,-0.0155,-0.0068,-0.0066,-0.002,-0.0017,-0.0034,-0.0052,-0.0052,-0.0051,-0.0051,-0.0051,-0.0615,-0.0608,-0.0673,-0.0689,-0.0685,-0.0671,-0.053,-0.0346,-0.0239,-0.0168,-0.0044,-0.0044,-0.0026,-0.0024,-0.0039,-0.0057,-0.0057,-0.0057,-0.0057,-0.0678,-0.0679,-0.0776,-0.0824,-0.0833,-0.0757,-0.0665,-0.0433,-0.0194,-0.0064,-0.0064,-0.0042,-0.0041,-0.0023,-0.002,-0.0034,-0.0052,-0.0052,-0.0052,-0.0741,-0.0765,-0.085,-0.0891,-0.0904,-0.0848,-0.0752,-0.0479,-0.0137,-0.0054,-0.0089,-0.0052,-0.0016,-0.0016,0.0016,0.0019,-0.0003,0,0]}],[{"header":{"parameterUnit":"m.s-1","parameterCategory":2,"la1":30.2992,"la2":30.254,"lo1":-89.0895,"lo2":-89.0443,"dy":0.0025,"dx":0.0025,"nx":19,"ny":19,"refTime":"2026-03-30T03:00:00:Z","depth":"4","parameterNumber":2,"parameterNumberName":"U-component_of_CURRENTS"},"data":[0,0,0,-0.0896,-0.0897,-0.0943,-0.0943,-0.0934,-0.0934,0,0,0,0,0,0,0,0,0,0,0,-0.0882,-0.0883,-0.0896,-0.0897,-0.0943,-0.0943,-0.0934,-0.0934,0,0,0,0,0,0,0,0,0,0,0,-0.0882,-0.0883,-0.0884,-0.0898,-0.0943,-0.0943,-0.0934,-0.0915,0,0,0,0,0,0,0,0,0,0,-0.0879,-0.0881,-0.0883,-0.0884,-0.0898,-0.0943,-0.0943,-0.0915,-0.0916,-0.0897,0,-0.0913,0,-0.0924,-0.0933,-0.0933,0,0,0,-0.0892,-0.088,-0.089,-0.0884,-0.0898,-0.0943,-0.0921,-0.0916,-0.0918,-0.0898,-0.0913,-0.0913,-0.0924,-0.0932,-0.0932,-0.0973,-0.0974,0,0,-0.0889,-0.0888,-0.0889,-0.0892,-0.0921,-0.0919,-0.0922,-0.0918,-0.0923,-0.0913,-0.0913,-0.0924,-0.0932,-0.0932,-0.0973,-0.0974,0,0,0,-0.0886,-0.0887,-0.0899,-0.0891,-0.0905,-0.0921,-0.0924,-0.0924,-0.0928,-0.0913,-0.0923,-0.0932,-0.0932,-0.0972,-0.0973,-0.107,0,0,0,-0.0884,-0.0885,-0.0898,-0.0897,-0.0906,-0.0925,-0.093,-0.0928,-0.0928,-0.0923,-0.0932,-0.0932,-0.0972,-0.0973,-0.1066,-0.1088,0,0,0,-0.0878,-0.0885,-0.0893,-0.0897,-0.0919,-0.0926,-0.093,-0.0929,-0.0934,-0.0933,-0.0932,-0.0971,-0.0973,-0.1062,-0.1083,-0.1123,0,0,0,-0.0871,-0.0892,-0.0893,-0.0925,-0.0919,-0.0967,-0.093,-0.0959,-0.0964,-0.0932,-0.0972,-0.0973,-0.1061,-0.1079,-0.112,-0.0971,0,0,0,-0.089,-0.0894,-0.0914,-0.0917,-0.0967,-0.096,-0.1023,-0.101,-0.0978,-0.0965,-0.0967,-0.1067,-0.1082,-0.1122,-0.106,0,0,0,0,-0.0916,-0.0931,-0.0947,-0.0979,-0.1008,-0.1052,-0.1052,-0.1061,-0.1074,-0.0989,-0.107,-0.1076,-0.1099,-0.1002,-0.098,-0.098,-0.098,-0.098,-0.098,-0.0923,-0.095,-0.0991,-0.1032,-0.1072,-0.1119,-0.1156,-0.1165,-0.1131,-0.116,-0.1159,-0.1257,-0.116,-0.1171,-0.1172,-0.1172,-0.1173,-0.1173,-0.1173,-0.0947,-0.0966,-0.1025,-0.1077,-0.1135,-0.1193,-0.1255,-0.1261,-0.1305,-0.1258,-0.1275,-0.1115,-0.1183,-0.1181,-0.1179,-0.1178,-0.1178,-0.1177,-0.1176,-0.0932,-0.0946,-0.0997,-0.1078,-0.1167,-0.1239,-0.1315,-0.1358,-0.1373,-0.1405,-0.1281,-0.1313,-0.13,-0.1415,-0.1415,-0.1415,-0.1416,-0.1416,-0.1416,-0.0884,-0.0936,-0.098,-0.1078,-0.1137,-0.1231,-0.135,-0.1387,-0.1425,-0.1359,-0.1425,-0.1337,-0.1329,-0.1313,-0.1421,-0.142,-0.1419,-0.1419,-0.1419,-0.0837,-0.0867,-0.0921,-0.0978,-0.1107,-0.1168,-0.131,-0.136,-0.1391,-0.1367,-0.133,-0.1333,-0.1276,-0.127,-0.1249,-0.1342,-0.134,-0.1339,0,-0.0784,-0.081,-0.0861,-0.0924,-0.1001,-0.1119,-0.1158,-0.1229,-0.1265,-0.122,-0.1367,-0.1322,-0.1323,-0.1254,-0.1246,-0.1218,0,0,0,-0.0738,-0.0765,-0.0773,-0.0855,-0.0941,-0.1034,-0.1158,-0.1148,-0.1261,-0.1267,-0.1301,-0.1311,-0.1387,-0.1435,-0.1354,-0.1344,-0.1314,0,0]},{"header":{"parameterUnit":"m.s-1","parameterCategory":2,"la1":30.2992,"la2":30.254,"lo1":-89.0895,"lo2":-89.0443,"dy":0.0025,"dx":0.0025,"nx":19,"ny":19,"refTime":"2026-03-30T03:00:00:Z","depth":"4","parameterNumber":3,"parameterNumberName":"V-component_of_CURRENTS"},"data":[0,0,0,-0.007,-0.0069,-0.0006,-0.0006,0.0048,0.0049,0,0,0,0,0,0,0,0,0,0,0,-0.0096,-0.0096,-0.007,-0.0069,-0.0006,-0.0006,0.0048,0.0049,0,0,0,0,0,0,0,0,0,0,0,-0.0096,-0.0096,-0.0096,-0.0069,-0.0006,-0.0006,0.0048,0.0009,0,0,0,0,0,0,0,0,0,0,-0.0048,-0.0075,-0.0096,-0.0096,-0.0068,-0.0007,-0.0006,0.0008,0.0012,0.001,0,0.0014,0,0.0031,0.0051,0.0051,0,0,0,-0.0062,-0.0078,-0.0058,-0.0096,-0.0068,-0.0007,-0.0033,0.001,0.0015,0.0016,0.0015,0.0017,0.0032,0.0051,0.0052,0.0095,0.0095,0,0,-0.0065,-0.0086,-0.0061,-0.0055,-0.0061,-0.0035,-0.0031,0.0013,0.0011,0.0015,0.0019,0.0032,0.0052,0.0052,0.0095,0.0095,0,0,0,-0.008,-0.0088,-0.0068,-0.0058,-0.0045,-0.0033,-0.0028,0.0009,0.0017,0.0019,0.0033,0.0052,0.0052,0.0095,0.0095,0.0048,0,0,0,-0.0082,-0.0097,-0.007,-0.0082,-0.0046,-0.0015,-0.0034,0.0014,0.0019,0.0033,0.0052,0.0053,0.0095,0.0095,0.0049,0.0014,0,0,0,-0.0097,-0.0099,-0.0093,-0.0083,-0.0058,-0.0015,-0.0004,0.0016,0.0027,0.0051,0.0053,0.0094,0.0095,0.0049,0.0016,0.0039,0,0,0,-0.0117,-0.0123,-0.0094,-0.0099,-0.0059,-0.0032,-0.0004,0.002,0.0038,0.0052,0.0095,0.0095,0.005,0.0018,0.0039,-0.0011,0,0,0,-0.0137,-0.0127,-0.0129,-0.0101,-0.0099,-0.0039,-0.0027,0.001,0.0047,0.0079,0.008,0.0048,0.0016,0.0039,0.0019,0,0,0,0,-0.0143,-0.0153,-0.0145,-0.0137,-0.01,-0.0071,-0.0022,0.001,0.0052,0.006,0.0072,0.0054,0.0069,0.0043,0.0097,0.0097,0.0097,0.0097,0.0097,-0.0203,-0.0186,-0.02,-0.0177,-0.0155,-0.009,-0.0056,-0.0001,0.0031,0.0053,0.0033,0.0039,0.0011,0.0062,0.0062,0.0062,0.0062,0.0061,0.0061,-0.0261,-0.0274,-0.0252,-0.0262,-0.0216,-0.0195,-0.0101,-0.0059,-0.0001,0.0021,0.004,0.0016,0.0057,0.0058,0.0059,0.0059,0.0059,0.006,0.006,-0.0311,-0.0316,-0.0323,-0.0337,-0.0323,-0.026,-0.0221,-0.0141,-0.0053,-0.0037,-0.0026,0.0021,0.0006,-0.0014,-0.0015,-0.0015,-0.0015,-0.0015,-0.0015,-0.036,-0.0365,-0.0406,-0.0412,-0.0422,-0.0394,-0.0289,-0.0229,-0.0126,-0.0086,-0.0045,0.0014,0.0017,0.0004,-0.0016,-0.0015,-0.0015,-0.0015,-0.0015,-0.0419,-0.0422,-0.0486,-0.0512,-0.0529,-0.0498,-0.0406,-0.0267,-0.0202,-0.014,-0.009,-0.0086,-0.0068,-0.0063,-0.0078,-0.0123,-0.0124,-0.0124,0,-0.0457,-0.0465,-0.0553,-0.0604,-0.0616,-0.0556,-0.0469,-0.037,-0.0236,-0.0245,-0.0203,-0.0153,-0.0147,-0.0133,-0.013,-0.0152,0,0,0,-0.0498,-0.052,-0.059,-0.064,-0.0655,-0.0535,-0.0441,-0.0393,-0.0269,-0.02,-0.0143,-0.0138,-0.0095,-0.0018,0.002,0.0023,0.0004,0,0]}]]